Tracking 17142 objects as of 28-May-2015
HD Live streaming from Space Station

COSMOS 2404 (GLONASS)

Track COSMOS 2404 (GLONASS) now!
COSMOS 2404 (GLONASS) is classified as:


NORAD ID: 28112
Int'l Code: 2003-056A
Perigee: 19,047.4 km
Apogee: 19,228.9 km
Inclination: 63.2 °
Period: 675.8 minutes
Semi major axis: 25509 km
RCS: 3.2542 m2 (large)
Launch date: December 10, 2003
Source: Commonwealth of Independent States (former USSR) (CIS)
SV: 701

New Glonass-M type; Russia's version of the GPS system, functions the same; there has been cooperation between the two; much scaled-back constellation
Your satellite tracking list
Your tracking list is empty





NASA's NSSDC Master Catalog

Two Line Element Set (TLE):
1 28112U 03056A   15145.81114157  .00000008  00000-0  00000+0 0  9999
2 28112 063.2307 205.3631 0035559 089.9949 174.8479 02.13087962 89153

Source of the keplerian elements: AFSPC

N2YO: 313